FW1555 Weather Reports


time (UTC)temp
F
wind
direction
speed
knots
gust
knots
rain 1hr
in
rain 24hr
in
rain mn
in
humidity
%
barometer
mb
20260905020051 69 0 0.0 0.0 0.00 0.00 0.00 83 1010.9
20260905014558 69 0 0.0 0.0 0.00 0.00 0.00 84 1010.8
20260905013054 69 0 0.0 0.0 0.00 0.00 0.00 84 1010.7
20260905011557 70 0 0.0 0.0 0.00 0.00 0.00 84 1010.6
20260905010048 71 0 0.0 0.0 0.00 0.00 0.00 81 1010.8
20260905004603 72 0 0.0 0.0 0.00 0.00 0.00 80 1010.8
20260905003054 74 0 0.0 0.0 0.00 0.00 0.00 75 1010.4
20260905001552 75 0 0.0 0.0 0.00 0.00 0.00 73 1010.4
20260905000101 76 0 0.0 0.0 0.00 0.00 0.00 72 1010.4
20260904234559 76 0 0.0 0.0 0.00 0.00 0.00 71 1010.6
20260904233101 77 0 0.0 0.0 0.00 0.00 0.00 69 1010.4
20260904231553 79 0 0.0 0.9 0.00 0.00 0.00 66 1010.4
20260904230101 80 259 0.0 3.5 0.00 0.00 0.00 64 1010.4
20260904224550 81 0 0.0 3.5 0.00 0.00 0.00 63 1010.4
20260904223054 82 0 0.0 3.5 0.00 0.00 0.00 62 1010.8
20260904221553 82 257 0.0 6.1 0.00 0.00 0.00 61 1010.7
20260904220049 83 0 0.0 6.1 0.00 0.00 0.00 59 1010.4
20260904214557 83 0 0.0 0.9 0.00 0.00 0.00 60 1010.3
20260904213054 83 277 0.9 12.2 0.00 0.00 0.00 58 1010.3
20260904211600 83 259 3.5 12.2 0.00 0.00 0.00 58 1010.3
20260904210049 85 0 0.0 6.1 0.00 0.00 0.00 59 1010.4
20260904204601 84 0 0.9 9.6 0.00 0.00 0.00 59 1010.7
20260904203053 84 263 1.7 7.8 0.00 0.00 0.00 59 1010.6
20260904201555 84 252 1.7 7.8 0.00 0.00 0.00 61 1010.9
20260904200106 84 250 3.5 11.3 0.00 0.00 0.00 61 1010.8
20260904194603 85 0 0.0 8.7 0.00 0.00 0.00 62 1010.8
20260904193105 85 0 0.0 2.6 0.00 0.00 0.00 61 1011.1
20260904191551 84 0 3.5 10.4 0.00 0.00 0.00 61 1011.0
20260904184605 82 0 0.0 2.6 0.00 0.00 0.00 65 1011.4
20260904183053 83 0 0.0 4.3 0.00 0.00 0.00 63 1011.5
20260904181549 83 258 0.0 2.6 0.00 0.00 0.00 65 1011.3
20260904180111 83 0 0.9 8.7 0.00 0.00 0.00 64 1011.4
20260904174602 84 0 0.0 4.3 0.00 0.00 0.00 60 1011.1
20260904173059 83 0 0.0 6.1 0.00 0.00 0.00 64 1011.0
20260904171602 82 0 0.0 2.6 0.00 0.00 0.00 63 1011.0
20260904164604 81 0 0.9 7.0 0.00 0.00 0.00 65 1011.3
20260904163100 82 265 0.9 9.6 0.00 0.00 0.00 67 1011.2
20260904161603 81 264 0.9 7.0 0.00 0.00 0.00 67 1011.3
20260904160059 81 352 0.9 6.1 0.00 0.00 0.00 66 1011.5
20260904154558 81 0 0.0 3.5 0.00 0.00 0.00 68 1011.4
20260904153101 81 0 0.9 3.5 0.00 0.00 0.00 68 1011.6
20260904151603 81 0 0.0 2.6 0.00 0.00 0.00 70 1011.7
20260904150056 81 0 0.0 2.6 0.00 0.00 0.00 72 1011.7
20260904144555 81 0 0.9 7.0 0.00 0.00 0.00 71 1011.7
20260904143104 80 0 0.0 2.6 0.00 0.00 0.00 75 1011.6
20260904141619 80 0 0.0 2.6 0.00 0.00 0.00 77 1011.7
20260904140059 78 0 0.0 2.6 0.00 0.00 0.00 81 1011.6
20260904134557 78 0 0.0 2.6 0.00 0.00 0.00 83 1011.6
20260904133052 77 0 0.0 0.9 0.00 0.00 0.00 84 1011.6
20260904131632 76 0 0.0 0.9 0.00 0.00 0.00 87 1011.7
20260904130058 76 0 0.0 0.9 0.00 0.00 0.00 87 1011.7
20260904124558 76 0 0.0 0.9 0.00 0.00 0.00 88 1011.7
20260904123108 74 0 0.0 0.9 0.00 0.00 0.00 92 1011.8
20260904121552 73 0 0.0 5.2 0.00 0.00 0.00 94 1011.6
20260904120051 72 0 0.0 0.0 0.00 0.00 0.00 95 1011.7
20260904114550 71 0 0.0 1.7 0.00 0.01 0.00 95 1011.7
20260904113100 71 0 0.0 0.0 0.00 0.01 0.00 96 1011.6
20260904111556 71 0 0.0 1.7 0.00 0.01 0.00 96 1011.2
20260904110049 71 0 0.0 0.0 0.00 0.01 0.00 97 1011.2
20260904104610 71 0 0.0 0.0 0.00 0.01 0.00 97 1011.0
20260904103106 71 0 0.0 0.0 0.00 0.01 0.00 98 1010.9
20260904101605 71 0 0.0 1.7 0.00 0.01 0.00 98 1010.8
20260904100100 71 0 0.0 0.0 0.00 0.01 0.00 98 1010.7
20260904094600 71 0 0.0 0.0 0.00 0.01 0.00 98 1010.3
20260904093056 72 0 0.0 0.0 0.00 0.01 0.00 97 1010.2
20260904091551 72 0 0.0 0.0 0.00 0.01 0.00 98 1010.1
20260904090049 72 0 0.0 2.6 0.00 0.01 0.00 98 1010.1
20260904084559 72 0 0.0 0.0 0.00 0.01 0.00 98 1010.2
20260904083058 72 0 0.0 0.0 0.00 0.01 0.00 98 1009.9
20260904081552 73 0 0.0 0.0 0.00 0.01 0.00 98 1010.1
20260904080049 73 0 0.0 0.0 0.00 0.01 0.00 99 1009.7
20260904074622 74 0 0.0 0.0 0.00 0.02 0.00 99 1009.9
20260904073053 73 0 0.0 0.0 0.00 0.02 0.00 99 1010.2
20260904071552 73 0 0.0 0.0 0.00 0.02 0.00 98 1009.9
20260904070051 74 0 0.0 0.0 0.00 0.02 0.00 98 1009.7
20260904064556 74 0 0.0 0.0 0.00 0.04 0.00 98 1010.0
20260904063106 74 0 0.0 0.0 0.00 0.04 0.00 98 1010.6
20260904061604 74 0 0.0 0.0 0.00 0.04 0.00 98 1010.7
20260904060114 74 0 0.0 0.0 0.00 0.04 0.00 97 1010.4
20260904054601 74 0 0.0 0.0 0.00 0.15 0.00 97 1010.8
20260904053053 74 0 0.0 0.0 0.00 0.15 0.00 97 1011.3
20260904051601 74 0 0.0 0.0 0.00 0.15 0.00 97 1011.1
20260904050100 74 0 0.0 0.0 0.00 0.15 0.00 97 1011.1
20260904044601 74 0 0.0 0.0 0.00 0.25 0.00 97 1011.3
20260904043051 74 0 0.0 0.0 0.00 0.25 0.00 96 1011.3
20260904041551 75 0 0.0 0.0 0.00 0.25 0.00 96 1011.7
20260904040105 75 0 0.0 0.0 0.00 0.25 0.00 96 1011.7
20260904034604 75 0 0.0 0.0 0.00 0.25 0.25 96 1011.5
20260904033052 74 0 0.0 0.0 0.00 0.25 0.25 96 1011.3
20260904031601 74 0 0.0 0.0 0.00 0.25 0.25 96 1011.4
20260904030058 74 0 0.0 0.0 0.00 0.25 0.25 96 1011.6
20260904024551 75 0 0.0 0.0 0.00 0.25 0.25 95 1011.6
20260904023050 75 0 0.0 0.0 0.00 0.25 0.25 95 1012.1
20260904021601 75 0 0.0 0.0 0.00 0.25 0.25 95 1012.2